Temp
12 12 12 12 12 12 13 13 13 13 14 14 14 14 15 15 15 15 15 15 15 15 16 16 16 16 17 17 16 16 17 17 18 18 19 17 16 17 16 16 15 15 14 14 15
12 12 12 12 12 13 13 13 13 13 14 14 14 14 14 15 15 15 15 15 15 16 16 16 16 16 16 17 18 17 16 17 18 20 19 19 18 16 17 15 15 14 16 15 15
11 12 12 12 12 13 13 13 13 14 14 14 14 14 14 15 15 14 14 15 15 16 16 16 16 16 17 17 19 16 16 18 19 19 19 19 17 18 16 15 16 15 16 16 15
11 12 12 12 12 13 13 13 13 14 14 14 14 14 15 15 14 14 14 15 15 15 16 16 16 16 17 18 19 19 18 19 20 19 20 20 19 18 18 17 17 17 16 16 15
11 12 12 12 12 13 13 13 13 13 14 14 14 14 15 14 14 14 15 15 16 16 16 16 16 17 17 18 19 19 19 20 20 20 19 19 19 19 19 17 17 17 17 16 15
11 11 12 12 13 13 13 13 13 13 14 14 14 14 14 14 14 15 15 15 15 16 16 16 16 17 17 18 19 19 19 20 20 20 19 19 20 19 18 18 17 16 16 14 13
11 11 12 12 12 13 13 13 13 13 14 14 14 14 14 15 14 14 15 15 14 15 16 16 16 16 17 18 19 19 19 20 20 20 20 20 19 19 18 15 17 16 15 14 13
11 11 12 12 12 13 13 13 13 13 13 14 14 14 15 14 14 15 15 14 14 14 15 15 15 16 17 18 18 19 19 18 15 20 20 20 18 19 18 15 16 16 15 14 13
11 11 12 12 12 12 13 13 13 13 13 14 14 14 14 14 15 15 14 15 15 15 15 15 16 16 17 18 19 19 20 18 18 18 20 20 19 19 19 17 18 17 16 15 13
11 11 11 12 12 12 13 13 13 13 13 14 14 14 15 15 15 14 14 14 15 15 16 15 16 16 17 18 19 19 16 17 18 19 20 20 21 20 19 19 19 18 17 15 14
10 11 11 11 12 12 12 13 13 13 13 14 14 14 15 14 14 15 14 14 15 15 16 17 17 18 18 19 19 20 19 17 17 18 20 20 20 20 19 19 19 18 17 16 14
10 10 11 11 12 12 12 12 12 13 13 14 13 14 14 14 14 15 15 15 15 16 16 17 18 18 19 19 20 20 20 19 20 20 20 20 20 20 20 19 19 18 18 16 14
9 10 10 11 11 11 12 12 12 12 13 15 14 14 14 14 14 15 15 15 16 16 17 18 18 19 19 19 19 19 19 20 20 20 20 20 20 20 19 19 18 18 17 16 15
9 9 10 10 10 11 11 12 12 12 12 14 15 15 15 15 15 15 16 15 16 16 17 17 18 18 18 18 18 19 19 20 20 20 20 20 21 19 19 19 18 17 17 15 15
9 9 10 10 10 10 11 11 11 12 14 17 16 15 15 15 16 15 16 15 16 17 17 18 18 18 18 18 18 19 19 20 20 20 20 20 21 18 18 19 17 16 16 15 14
8 9 9 10 10 10 11 11 11 11 14 16 16 15 15 15 15 16 15 15 16 16 17 17 18 18 18 18 18 19 19 19 19 20 20 20 21 19 18 17 17 15 15 14 15
8 8 9 9 9 10 10 10 10 12 15 16 16 16 15 16 16 16 16 16 16 16 16 17 17 18 17 18 18 18 19 19 19 20 21 21 21 20 18 17 17 15 15 15 15
8 8 8 9 10 9 10 9 11 13 14 16 16 17 16 16 16 16 16 16 16 16 17 18 18 18 18 18 19 18 19 19 19 20 19 17 19 19 18 17 16 15 15 16 16
8 8 8 8 9 9 9 9 11 13 15 16 16 16 17 17 17 17 17 17 17 16 17 18 19 19 18 18 18 19 19 19 19 20 20 18 18 18 18 17 16 14 14 13 15
7 8 6 8 8 8 8 9 11 13 14 14 15 16 16 17 17 17 17 17 17 17 17 17 18 18 19 18 18 18 19 19 19 19 19 21 18 16 16 17 16 15 14 13 15
7 7 6 7 8 7 7 9 11 12 12 12 13 14 15 16 17 17 17 17 17 17 17 17 17 18 19 18 18 18 18 19 19 20 17 17 15 16 14 13 16 16 14 13 12
7 6 7 7 7 7 8 9 11 12 11 11 12 13 14 15 16 16 17 17 17 17 17 17 17 17 18 19 18 18 18 18 19 19 19 19 17 17 16 17 16 15 16 13 13
6 6 6 6 7 8 9 10 11 11 11 11 11 12 13 14 14 15 16 16 16 17 17 17 17 17 17 17 18 18 18 19 19 18 18 17 17 16 17 16 16 15 15 13 13
5 6 6 7 7 8 9 10 10 9 10 10 11 12 12 13 13 14 14 16 15 15 16 16 16 17 17 18 19 18 18 18 18 18 19 18 15 15 15 14 12 14 14 15 14
5 6 7 7 7 7 8 9 10 10 10 9 10 11 11 12 12 13 14 14 15 15 15 15 15 16 16 17 17 18 18 18 18 18 18 17 16 15 15 14 11 13 15 14 14
4 5 5 7 6 8 8 8 8 9 9 10 9 10 10 11 11 13 13 14 14 15 14 14 15 15 15 16 17 17 17 16 17 18 18 18 16 15 16 15 15 12 14 15 14
3 4 5 6 7 7 8 8 8 9 9 9 9 10 10 11 11 12 12 12 12 13 13 14 14 14 15 16 16 17 17 18 18 18 18 17 16 15 14 14 12 12 12 14 13
Height
3188 3188 3189 3189 3190 3190 3190 3190 3190 3190 3189 3189 3189 3189 3190 3192 3194 3197 3198 3199 3201 3202 3202 3202 3201 3202 3201 3201 3203 3206 3200 3196 3195 3189 3192 3192 3198 3199 3198 3199 3198 3196 3193 3189 3188
3188 3188 3189 3190 3190 3191 3191 3191 3191 3190 3190 3189 3189 3188 3188 3189 3191 3194 3196 3198 3200 3202 3203 3202 3203 3204 3203 3204 3205 3204 3210 3196 3193 3196 3196 3192 3193 3195 3196 3198 3198 3196 3192 3190 3188
3187 3188 3188 3189 3189 3190 3190 3190 3190 3190 3190 3189 3189 3189 3189 3188 3191 3190 3193 3197 3199 3201 3202 3203 3203 3204 3205 3205 3202 3205 3209 3198 3194 3198 3197 3196 3187 3188 3190 3195 3196 3195 3192 3191 3189
3186 3187 3188 3188 3189 3189 3190 3190 3190 3190 3190 3190 3189 3189 3189 3190 3194 3191 3192 3195 3197 3200 3202 3203 3203 3204 3205 3203 3201 3204 3198 3196 3198 3198 3199 3198 3198 3192 3192 3194 3194 3194 3190 3190 3188
3185 3186 3187 3187 3188 3189 3190 3190 3189 3189 3189 3189 3190 3189 3190 3191 3191 3190 3191 3191 3193 3197 3200 3202 3203 3204 3204 3201 3200 3200 3199 3198 3198 3198 3199 3199 3198 3198 3193 3194 3196 3192 3189 3188 3187
3183 3184 3186 3186 3187 3187 3188 3189 3189 3188 3189 3189 3189 3189 3190 3191 3190 3189 3190 3191 3192 3195 3199 3202 3203 3204 3202 3201 3199 3198 3197 3197 3198 3198 3198 3199 3197 3197 3198 3197 3198 3193 3188 3188 3189
3181 3182 3184 3185 3186 3186 3187 3187 3188 3188 3188 3188 3188 3188 3189 3190 3189 3190 3190 3190 3195 3195 3200 3202 3202 3203 3202 3200 3199 3198 3197 3197 3196 3196 3197 3197 3195 3193 3195 3193 3196 3195 3191 3191 3194
3179 3180 3182 3183 3184 3185 3186 3186 3187 3187 3188 3187 3188 3188 3187 3188 3188 3188 3189 3192 3193 3194 3196 3198 3198 3200 3200 3199 3197 3196 3195 3198 3201 3191 3196 3197 3195 3192 3189 3194 3191 3193 3192 3193 3195
3175 3177 3179 3180 3182 3183 3184 3185 3185 3186 3186 3186 3187 3187 3187 3186 3186 3187 3189 3192 3196 3195 3196 3196 3196 3198 3200 3199 3196 3192 3191 3189 3196 3192 3195 3194 3191 3188 3187 3184 3194 3191 3191 3194 3196
3172 3174 3175 3177 3179 3180 3182 3183 3183 3184 3184 3185 3186 3189 3186 3187 3188 3186 3188 3190 3192 3194 3195 3195 3195 3197 3197 3194 3191 3191 3201 3199 3193 3191 3192 3191 3189 3185 3191 3192 3191 3189 3188 3191 3194
3168 3170 3172 3174 3176 3177 3180 3182 3184 3183 3181 3183 3188 3184 3186 3185 3184 3184 3186 3188 3189 3192 3193 3193 3194 3193 3192 3192 3189 3188 3187 3199 3205 3185 3193 3190 3188 3189 3190 3191 3191 3190 3186 3188 3191
3164 3166 3168 3170 3173 3174 3176 3179 3177 3180 3177 3178 3180 3183 3184 3182 3183 3183 3186 3187 3189 3189 3191 3191 3190 3190 3190 3189 3188 3188 3189 3188 3186 3188 3190 3188 3186 3186 3187 3189 3189 3190 3188 3187 3184
3160 3162 3165 3167 3169 3171 3173 3174 3176 3176 3174 3173 3175 3177 3180 3182 3181 3183 3185 3185 3187 3187 3188 3188 3187 3187 3187 3187 3187 3187 3188 3187 3187 3185 3185 3184 3183 3184 3183 3186 3186 3187 3188 3186 3184
3157 3159 3161 3164 3168 3168 3170 3171 3174 3175 3174 3171 3171 3173 3176 3180 3179 3179 3182 3185 3185 3185 3185 3186 3185 3186 3187 3187 3187 3186 3185 3185 3184 3184 3183 3182 3180 3180 3181 3182 3183 3181 3185 3185 3184
3152 3155 3158 3161 3164 3165 3167 3170 3172 3175 3173 3166 3168 3171 3172 3175 3176 3175 3179 3181 3182 3182 3184 3183 3183 3184 3184 3185 3186 3185 3185 3184 3181 3184 3184 3181 3179 3180 3181 3181 3167 3182 3181 3184 3185
3148 3150 3153 3157 3160 3162 3165 3168 3172 3176 3166 3165 3165 3167 3170 3171 3173 3176 3176 3179 3181 3180 3180 3180 3180 3181 3182 3183 3184 3185 3185 3185 3184 3183 3179 3177 3177 3176 3176 3181 3181 3180 3178 3182 3185
3143 3146 3149 3152 3154 3158 3162 3166 3172 3167 3164 3163 3163 3164 3166 3168 3171 3173 3175 3175 3176 3178 3177 3178 3178 3179 3180 3181 3182 3184 3184 3183 3181 3176 3172 3167 3171 3173 3173 3175 3177 3174 3178 3181 3184
3140 3142 3145 3148 3151 3155 3159 3164 3163 3160 3159 3158 3158 3160 3162 3165 3167 3170 3171 3172 3173 3174 3173 3173 3172 3174 3176 3177 3178 3180 3182 3178 3172 3168 3174 3182 3174 3172 3172 3173 3175 3175 3178 3181 3182
3137 3139 3142 3144 3148 3152 3156 3157 3155 3157 3159 3158 3156 3159 3159 3160 3163 3164 3167 3167 3168 3171 3172 3169 3167 3166 3170 3174 3177 3177 3177 3178 3173 3168 3168 3171 3175 3176 3173 3175 3174 3175 3178 3180 3181
3135 3137 3139 3141 3144 3148 3151 3151 3154 3157 3157 3157 3156 3157 3158 3157 3159 3161 3161 3164 3165 3166 3168 3168 3168 3165 3166 3171 3173 3173 3175 3175 3172 3171 3169 3164 3172 3171 3168 3174 3175 3176 3178 3180 3180
3135 3137 3136 3139 3141 3144 3146 3149 3152 3153 3154 3157 3158 3157 3156 3155 3154 3154 3159 3160 3161 3162 3164 3166 3168 3165 3165 3167 3169 3171 3171 3171 3169 3167 3168 3170 3170 3176 3167 3159 3174 3177 3177 3179 3181
3132 3136 3136 3137 3140 3141 3144 3147 3151 3151 3151 3153 3156 3156 3155 3154 3152 3151 3153 3156 3157 3158 3160 3163 3165 3164 3162 3162 3165 3167 3167 3168 3168 3166 3165 3166 3165 3168 3170 3175 3177 3172 3175 3179 3181
3130 3136 3133 3135 3138 3140 3142 3144 3146 3148 3148 3151 3153 3155 3154 3154 3154 3152 3152 3154 3152 3154 3158 3160 3161 3162 3161 3163 3158 3161 3162 3163 3164 3165 3163 3167 3167 3174 3170 3168 3175 3173 3174 3178 3180
3129 3133 3133 3131 3133 3137 3138 3141 3143 3145 3146 3149 3150 3152 3153 3154 3154 3154 3152 3153 3152 3155 3155 3156 3157 3159 3158 3157 3157 3157 3160 3159 3160 3159 3159 3161 3163 3161 3167 3170 3163 3178 3175 3175 3178
3128 3131 3130 3132 3133 3135 3137 3138 3140 3142 3143 3145 3147 3149 3151 3152 3153 3154 3152 3150 3152 3154 3155 3157 3155 3156 3156 3155 3155 3155 3153 3153 3155 3156 3157 3160 3157 3168 3168 3167 3173 3179 3176 3173 3175
3125 3127 3126 3131 3131 3132 3135 3136 3138 3139 3142 3142 3144 3146 3149 3150 3151 3151 3152 3153 3151 3152 3151 3154 3155 3156 3154 3154 3153 3151 3151 3148 3146 3151 3152 3154 3155 3159 3165 3165 3172 3178 3174 3172 3173
3121 3124 3126 3128 3130 3132 3133 3134 3135 3137 3138 3139 3141 3144 3145 3147 3147 3148 3147 3147 3148 3148 3148 3150 3152 3154 3152 3153 3151 3147 3146 3146 3147 3148 3148 3148 3149 3154 3159 3166 3172 3173 3173 3171 3170
Wind_Speed
7 6 6 5 4 3 2 2 2 2 4 5 6 7 14 25 25 20 18 17 10 7 5 5 4 5 4 10 8 4 6 7 13 16 7 12 15 6 16 11 6 8 5 2 8
8 8 7 6 5 4 4 3 3 3 4 5 6 5 5 12 24 24 24 20 15 11 8 7 6 9 9 13 9 12 12 18 13 8 6 8 8 17 4 5 1 8 8 7 6
9 9 8 7 5 4 5 4 4 4 4 5 5 5 3 3 8 15 21 25 20 14 12 9 9 12 12 11 10 11 2 10 12 1 4 4 13 6 7 3 7 5 6 8 5
11 10 9 8 6 6 6 5 5 5 5 5 5 3 1 8 3 8 15 20 26 21 16 12 11 13 12 13 11 8 9 5 4 2 3 4 4 4 10 13 9 7 10 10 6
13 12 10 10 9 7 7 6 7 5 6 6 5 4 3 9 9 11 11 12 15 24 21 16 13 12 13 14 16 12 10 5 6 4 4 4 3 2 3 6 4 9 14 14 10
15 14 13 11 11 9 8 8 7 7 6 7 6 6 5 6 13 17 12 4 6 10 12 13 12 12 18 15 14 10 10 9 6 6 5 5 6 2 3 2 2 8 10 7 7
18 16 15 13 13 11 10 10 9 8 7 7 7 8 9 9 12 10 7 2 4 8 9 11 13 12 9 12 9 15 13 12 11 9 5 7 5 11 24 8 5 7 8 10 9
20 19 17 16 15 13 12 11 11 10 8 7 8 9 9 10 13 10 7 7 7 8 11 9 13 13 14 14 14 13 15 16 11 4 7 8 3 11 5 9 8 4 9 10 9
23 22 21 20 18 16 14 13 12 11 10 9 8 9 7 16 11 9 9 7 8 8 10 12 14 13 14 16 15 17 24 14 11 22 10 7 11 8 5 4 5 7 9 8 8
23 23 23 23 21 19 17 15 14 13 12 10 9 7 10 5 7 11 10 12 9 6 9 11 10 14 16 19 24 5 18 5 20 23 3 6 11 6 4 2 6 9 8 9 11
22 22 22 22 21 20 18 14 10 12 16 12 4 10 7 9 14 11 10 11 11 10 11 11 12 18 17 19 19 22 14 10 5 15 6 8 7 4 4 3 5 9 10 9 9
21 21 21 21 20 18 16 11 16 17 19 15 18 17 14 11 7 9 10 12 12 13 11 11 15 15 16 18 22 16 12 16 10 8 8 8 11 4 3 3 6 8 9 6 14
19 19 19 19 18 17 16 16 14 14 21 21 19 19 19 17 14 11 13 13 12 13 14 17 15 11 15 15 14 16 14 14 14 9 7 10 15 12 7 10 5 1 3 7 13
20 19 17 16 17 15 11 14 11 11 11 20 16 18 19 15 19 16 16 14 14 15 14 17 17 10 13 14 16 17 14 14 14 13 14 5 16 16 10 12 7 4 6 3 15
20 20 19 18 15 11 19 11 8 5 6 10 17 13 13 22 3 15 17 16 16 15 12 16 15 16 14 13 13 15 11 13 6 12 15 17 12 19 13 6 14 10 12 7 11
18 19 19 20 18 17 12 11 9 7 13 10 11 13 16 20 17 9 18 17 14 15 15 18 11 13 16 13 14 12 14 12 10 15 18 20 16 17 5 7 11 11 10 10 3
16 17 18 19 21 21 17 13 8 14 16 15 10 14 16 20 20 18 16 19 20 15 18 17 20 15 14 16 15 13 14 14 12 14 15 11 12 5 12 8 5 5 4 2 4
15 16 16 18 19 16 18 15 15 13 23 5 5 14 19 18 21 24 20 19 22 21 17 19 19 20 18 19 16 14 20 22 12 6 7 15 9 6 9 8 13 11 5 1 4
13 14 15 17 17 18 22 22 22 17 13 21 15 17 14 17 21 20 28 24 20 21 23 20 18 14 17 16 19 20 16 21 25 23 9 14 16 8 10 12 13 12 6 7 2
10 11 6 15 17 20 22 24 19 18 16 11 11 15 17 19 20 22 21 25 23 21 20 20 16 12 16 16 17 21 13 15 19 9 12 13 16 14 15 15 16 8 9 9 3
6 3 14 8 16 21 20 20 22 18 11 11 12 18 20 19 19 24 23 22 19 22 20 18 16 17 16 17 18 16 18 14 20 15 1 7 1 22 12 19 15 15 9 6 7
10 6 13 11 15 18 20 20 17 20 12 15 16 15 15 18 18 14 19 20 20 18 22 19 18 23 21 19 16 21 18 20 19 14 16 17 16 20 6 10 10 15 2 6 6
9 6 16 13 12 14 16 19 19 19 17 11 16 15 12 14 12 12 16 7 6 14 13 21 20 22 20 21 19 19 23 20 17 20 25 7 10 9 9 11 6 9 3 9 13
13 6 8 12 18 15 12 20 20 17 16 13 14 16 15 16 14 14 17 7 7 10 16 12 16 20 25 21 18 19 20 22 22 19 17 13 19 16 9 2 7 2 5 4 6
11 5 6 4 12 13 12 9 21 18 16 16 15 16 14 14 17 17 18 15 10 14 20 12 17 16 21 23 20 19 22 25 26 25 25 15 19 23 19 3 3 12 6 5 7
8 7 9 9 7 10 15 15 13 12 18 13 16 17 18 20 19 18 17 17 22 14 16 19 16 17 22 22 23 25 21 16 32 20 21 24 18 19 16 23 12 17 8 5 5
13 11 10 4 9 13 12 15 12 14 14 14 13 12 16 15 21 23 20 14 12 9 4 18 20 20 22 20 22 28 26 19 17 15 18 20 18 18 13 7 12 14 6 6 6
Wind_Direction
199 199 204 202 202 217 229 247 261 300 305 302 294 274 246 237 232 229 236 240 239 249 268 298 323 351 5 355 317 101 319 2 357 96 50 98 90 123 88 85 80 82 116 85 23
214 211 215 214 213 220 231 236 263 295 304 304 306 306 285 247 237 234 240 241 243 249 267 289 323 318 311 309 290 151 310 274 314 17 65 55 40 160 115 99 50 95 51 50 31
225 224 224 228 231 238 252 245 262 280 293 300 304 310 318 280 247 245 248 242 243 245 258 278 292 283 282 292 288 208 15 298 284 36 3 44 149 155 55 38 178 274 358 28 32
228 231 234 238 240 246 254 256 257 266 279 284 294 301 60 124 55 254 255 258 246 241 249 270 275 280 279 276 274 250 293 335 46 36 343 358 92 85 348 110 120 283 332 337 344
235 237 237 242 243 243 252 256 261 267 275 276 278 276 161 159 310 275 287 266 247 237 244 263 263 268 270 272 294 273 284 256 268 257 267 318 252 323 316 120 149 302 316 319 319
240 240 241 242 246 245 254 258 259 264 268 271 268 260 221 197 260 267 286 239 211 218 233 248 251 257 275 270 287 268 293 258 265 225 291 269 318 222 226 193 231 255 292 271 214
241 243 244 244 245 246 249 258 261 260 262 266 267 258 246 217 261 266 263 227 235 193 226 249 234 242 248 271 280 269 270 255 240 254 280 260 301 237 283 244 201 241 227 225 207
246 246 246 246 248 248 249 253 260 262 262 263 268 264 241 253 260 253 246 247 256 232 217 226 238 249 251 267 273 258 255 16 250 263 264 273 178 301 300 220 183 276 248 233 220
246 247 248 250 250 252 252 254 259 264 264 263 262 264 267 263 276 253 231 229 261 256 242 241 249 241 240 246 261 238 247 230 245 243 275 278 203 245 293 211 249 265 245 238 229
246 248 249 251 253 254 255 259 264 265 264 258 258 276 251 276 253 213 215 225 223 233 250 258 253 239 232 243 240 190 20 358 278 261 267 280 293 220 94 241 267 236 261 233 231
246 247 249 252 255 256 259 263 274 290 255 231 348 217 297 252 245 255 227 231 232 241 236 236 236 228 232 235 257 284 208 160 226 266 288 281 316 259 152 311 290 304 259 246 218
244 245 247 249 251 253 255 247 253 251 257 245 237 243 233 246 241 254 221 224 231 233 238 249 232 242 239 247 253 281 273 245 268 237 268 279 292 298 212 247 305 293 285 224 225
244 244 243 244 246 247 250 252 260 260 270 257 247 243 241 243 244 227 228 226 226 238 232 236 239 239 241 246 259 261 275 280 273 309 284 265 263 244 193 261 266 358 298 199 229
244 243 241 240 238 243 244 249 252 267 286 267 241 229 225 229 247 222 228 222 232 239 238 242 244 250 248 250 247 257 262 270 275 293 274 343 279 174 209 217 177 133 115 212 214
241 240 238 234 234 214 227 230 235 231 272 266 206 220 209 213 267 219 202 221 227 232 237 245 240 246 243 243 233 252 262 282 261 264 270 274 277 156 279 211 100 111 103 149 222
240 237 234 230 225 230 231 215 196 216 239 221 205 222 216 224 222 247 211 215 230 234 241 246 256 243 246 240 238 245 260 259 260 259 256 248 251 139 142 157 123 129 130 178 174
241 237 232 225 216 217 211 194 213 230 229 247 225 231 224 217 219 211 211 218 217 223 239 241 243 246 239 235 233 236 245 240 238 232 237 255 216 119 127 135 107 140 100 138 31
241 236 231 225 224 213 203 194 226 228 233 243 250 228 220 220 221 220 224 226 227 227 246 223 237 229 230 226 228 226 231 243 242 271 72 268 298 146 179 166 138 142 147 136 347
241 234 230 222 215 209 197 211 215 220 220 256 240 234 238 230 232 215 225 230 230 225 240 259 263 239 212 221 224 234 219 244 271 285 244 199 180 202 162 152 150 150 165 168 319
239 240 220 223 213 205 205 221 223 227 268 269 228 232 235 243 228 233 227 230 235 230 228 242 283 261 209 217 228 234 250 232 247 275 281 280 60 26 141 192 153 151 159 192 298
213 115 230 245 215 205 215 224 229 231 252 234 237 256 263 262 247 232 234 236 232 232 225 231 243 254 222 209 226 220 242 250 249 240 182 340 225 274 136 216 174 164 178 213 191
199 186 249 257 223 218 224 225 225 238 232 247 245 255 265 250 273 269 224 237 231 230 230 223 235 243 262 217 221 239 226 232 255 270 249 274 207 226 238 211 171 155 208 179 182
171 214 269 242 214 222 241 232 229 233 242 254 234 239 248 256 279 255 246 264 187 201 234 231 228 249 258 249 221 223 234 249 239 245 269 181 176 201 169 158 185 163 166 184 210
169 206 262 236 212 251 252 230 229 237 231 233 241 238 242 242 238 248 258 246 240 226 246 244 236 225 246 237 241 225 237 237 244 256 256 254 134 106 96 89 59 183 215 278 262
185 192 234 249 236 232 229 252 231 236 241 230 233 227 231 238 234 239 255 275 257 254 243 249 247 253 252 260 269 255 253 228 232 234 247 214 178 211 190 188 75 273 291 280 291
161 228 219 225 251 214 227 235 228 229 230 242 232 232 239 237 239 245 238 257 261 255 225 230 240 249 261 261 258 262 256 226 258 228 241 245 203 196 238 239 228 237 263 303 311
236 205 212 223 242 229 231 233 232 238 230 233 230 239 236 243 246 237 255 266 252 279 267 224 229 235 253 258 259 262 254 258 258 248 246 255 207 135 98 138 205 228 227 300 288